• In Belgium
  • List of Countries
  • For 7 days
  • Water Temperature
  • Satellite Maps
  • Weather Map
  • Weather Widgets
  • user-avatar
    Login

    Hourly Weather Durbuy

    Today, 22 September, Saturday

    Time Temperature Precipitation Wind Pressure Humidity
    00:00 +10°C° 0 mm 4 mps 745 mmHg 77%
    01:00 +10°C° 0 mm 4 mps 745 mmHg 80%
    02:00 +8°C° 0 mm 4 mps 745 mmHg 82%
    03:00 +8°C° 0 mm 4 mps 745 mmHg 85%
    04:00 +8°C° 0 mm 4 mps 746 mmHg 85%
    05:00 +8°C° 0 mm 4 mps 746 mmHg 86%
    06:00 +9°C° 0 mm 3 mps 746 mmHg 86%
    07:00 +10°C° 0 mm 4 mps 746 mmHg 80%
    08:00 +12°C° 0 mm 4 mps 746 mmHg 75%
    09:00 +13°C° 0 mm 5 mps 746 mmHg 69%
    10:00 +14°C° 0.1 mm 5 mps 746 mmHg 67%
    11:00 +14°C° 0.1 mm 5 mps 746 mmHg 65%
    12:00 +15°C° 0.1 mm 5 mps 746 mmHg 63%
    13:00 +14°C° 0.2 mm 5 mps 746 mmHg 67%
    14:00 +13°C° 0.2 mm 4 mps 745 mmHg 71%
    15:00 +13°C° 0.2 mm 4 mps 745 mmHg 75%
    16:00 +12°C° 0.4 mm 3 mps 745 mmHg 80%
    17:00 +11°C° 0.4 mm 3 mps 745 mmHg 85%
    18:00 +10°C° 0.4 mm 2 mps 745 mmHg 89%
    19:00 +10°C° 0.4 mm 2 mps 745 mmHg 91%
    20:00 +10°C° 0.4 mm 2 mps 744 mmHg 92%
    21:00 +10°C° 0.4 mm 2 mps 744 mmHg 94%
    22:00 +10°C° 0.9 mm 2 mps 743 mmHg 94%
    23:00 +10°C° 0.9 mm 3 mps 743 mmHg 93%

    Tomorrow, 23 September, Sunday

    Time Temperature Precipitation Wind Pressure Humidity
    00:00 +10°C° 0.9 mm 3 mps 742 mmHg 93%
    01:00 +11°C° 0.9 mm 3 mps 741 mmHg 94%
    02:00 +11°C° 0.9 mm 3 mps 741 mmHg 95%
    03:00 +12°C° 0.9 mm 2 mps 740 mmHg 95%
    04:00 +13°C° 0.9 mm 2 mps 740 mmHg 96%
    05:00 +14°C° 0.9 mm 2 mps 740 mmHg 96%
    06:00 +15°C° 0.9 mm 2 mps 740 mmHg 97%
    07:00 +15°C° 0.5 mm 2 mps 740 mmHg 96%
    08:00 +15°C° 0.5 mm 2 mps 740 mmHg 96%
    09:00 +15°C° 0.5 mm 2 mps 740 mmHg 95%
    10:00 +14°C° 1 mm 3 mps 739 mmHg 95%
    11:00 +15°C° 1 mm 4 mps 738 mmHg 96%
    12:00 +16°C° 1 mm 5 mps 738 mmHg 96%
    13:00 +14°C° 3.9 mm 5 mps 737 mmHg 95%
    14:00 +11°C° 3.9 mm 6 mps 737 mmHg 95%
    15:00 +10°C° 3.9 mm 6 mps 737 mmHg 94%
    16:00 +9°C° 0.5 mm 6 mps 739 mmHg 94%
    17:00 +8°C° 0.5 mm 6 mps 741 mmHg 94%
    18:00 +7°C° 0.5 mm 6 mps 742 mmHg 94%
    19:00 +7°C° 0 mm 5 mps 744 mmHg 94%
    20:00 +6°C° 0 mm 4 mps 746 mmHg 95%
    21:00 +7°C° 0 mm 3 mps 747 mmHg 96%
    22:00 +7°C° 0 mm 3 mps 748 mmHg 95%
    23:00 +7°C° 0 mm 3 mps 749 mmHg 95%

    Day after tomorrow, 24 September, Monday

    Time Temperature Precipitation Wind Pressure Humidity
    00:00 +7°C° 0 mm 2 mps 750 mmHg 95%
    01:00 +7°C° 0 mm 2 mps 750 mmHg 94%
    02:00 +6°C° 0 mm 2 mps 751 mmHg 94%
    03:00 +7°C° 0 mm 1 mps 752 mmHg 94%
    04:00 +7°C° 0 mm 1 mps 753 mmHg 94%
    05:00 +6°C° 0 mm 1 mps 753 mmHg 93%
    06:00 +6°C° 0 mm 1 mps 754 mmHg 93%
    07:00 +7°C° 0 mm 2 mps 754 mmHg 85%
    08:00 +9°C° 0 mm 2 mps 755 mmHg 77%
    09:00 +11°C° 0 mm 3 mps 755 mmHg 69%
    10:00 +12°C° 0 mm 3 mps 756 mmHg 63%
    11:00 +13°C° 0 mm 3 mps 756 mmHg 57%
    12:00 +14°C° 0 mm 3 mps 756 mmHg 50%
    13:00 +14°C° 0 mm 3 mps 756 mmHg 52%
    14:00 +14°C° 0 mm 3 mps 756 mmHg 54%
    15:00 +14°C° 0 mm 4 mps 756 mmHg 57%
    16:00 +12°C° 0 mm 3 mps 756 mmHg 65%
    17:00 +10°C° 0 mm 2 mps 756 mmHg 74%
    18:00 +9°C° 0 mm 2 mps 756 mmHg 83%
    19:00 +8°C° 0 mm 2 mps 757 mmHg 85%
    20:00 +8°C° 0 mm 1 mps 757 mmHg 88%
    21:00 +7°C° 0 mm 1 mps 758 mmHg 90%
    22:00 +7°C° 0 mm 1 mps 758 mmHg 91%
    23:00 +7°C° 0 mm 1 mps 758 mmHg 91%

    25 September, Tuesday

    Time Temperature Precipitation Wind Pressure Humidity
    00:00 +6°C° 0 mm 1 mps 758 mmHg 92%
    01:00 +6°C° 0 mm 1 mps 758 mmHg 92%
    02:00 +6°C° 0 mm 1 mps 758 mmHg 92%
    03:00 +5°C° 0 mm 1 mps 758 mmHg 92%
    04:00 +5°C° 0 mm 1 mps 758 mmHg 92%
    05:00 +5°C° 0 mm 1 mps 758 mmHg 91%
    06:00 +4°C° 0 mm 2 mps 758 mmHg 91%
    07:00 +7°C° 0 mm 2 mps 759 mmHg 81%
    08:00 +9°C° 0 mm 3 mps 759 mmHg 71%
    09:00 +11°C° 0 mm 3 mps 759 mmHg 60%
    10:00 +12°C° 0 mm 3 mps 759 mmHg 56%
    11:00 +13°C° 0 mm 3 mps 759 mmHg 51%
    12:00 +14°C° 0 mm 3 mps 758 mmHg 46%
    13:00 +14°C° 0 mm 3 mps 758 mmHg 47%
    14:00 +14°C° 0 mm 3 mps 757 mmHg 48%
    15:00 +14°C° 0 mm 3 mps 757 mmHg 48%
    16:00 +13°C° 0 mm 3 mps 757 mmHg 55%
    17:00 +12°C° 0 mm 2 mps 756 mmHg 62%
    18:00 +9°C° 0 mm 2 mps 756 mmHg 69%
    19:00 +8°C° 0 mm 2 mps 756 mmHg 70%
    20:00 +7°C° 0 mm 2 mps 757 mmHg 72%
    21:00 +7°C° 0 mm 2 mps 757 mmHg 73%
    22:00 +6°C° 0 mm 2 mps 756 mmHg 73%
    23:00 +6°C° 0 mm 2 mps 756 mmHg 73%

    26 September, Wednesday

    Time Temperature Precipitation Wind Pressure Humidity
    00:00 +6°C° 0 mm 2 mps 756 mmHg 73%
    01:00 +5°C° 0 mm 2 mps 755 mmHg 73%
    02:00 +5°C° 0 mm 2 mps 755 mmHg 73%
    03:00 +6°C° 0 mm 1 mps 755 mmHg 73%
    04:00 +6°C° 0 mm 1 mps 755 mmHg 72%
    05:00 +6°C° 0 mm 1 mps 755 mmHg 71%
    06:00 +5°C° 0 mm 1 mps 755 mmHg 70%
    07:00 +8°C° 0 mm 1 mps 755 mmHg 62%
    08:00 +11°C° 0 mm 1 mps 755 mmHg 55%
    09:00 +14°C° 0 mm 1 mps 755 mmHg 47%
    10:00 +15°C° 0 mm 1 mps 755 mmHg 44%
    11:00 +18°C° 0 mm 1 mps 754 mmHg 41%
    12:00 +20°C° 0 mm 1 mps 754 mmHg 38%
    13:00 +20°C° 0 mm 1 mps 754 mmHg 40%
    14:00 +20°C° 0 mm 1 mps 753 mmHg 41%
    15:00 +20°C° 0 mm 1 mps 753 mmHg 43%
    16:00 +16°C° 0 mm 1 mps 753 mmHg 51%
    17:00 +14°C° 0 mm 1 mps 753 mmHg 58%
    18:00 +11°C° 0 mm 1 mps 753 mmHg 66%
    19:00 +11°C° 0 mm 1 mps 753 mmHg 68%
    20:00 +10°C° 0 mm 1 mps 753 mmHg 69%
    21:00 +10°C° 0 mm 1 mps 753 mmHg 70%
    22:00 +9°C° 0 mm 1 mps 753 mmHg 70%
    23:00 +9°C° 0 mm 1 mps 752 mmHg 70%

    27 September, Thursday

    Time Temperature Precipitation Wind Pressure Humidity
    00:00 +8°C° 0 mm 2 mps 752 mmHg 69%
    01:00 +8°C° 0 mm 2 mps 752 mmHg 68%
    02:00 +7°C° 0 mm 2 mps 751 mmHg 66%
    03:00 +7°C° 0 mm 2 mps 751 mmHg 65%
    04:00 +7°C° 0 mm 2 mps 751 mmHg 65%
    05:00 +7°C° 0 mm 2 mps 751 mmHg 65%
    06:00 +7°C° 0 mm 2 mps 751 mmHg 66%
    07:00 +10°C° 0 mm 3 mps 751 mmHg 62%
    08:00 +13°C° 0 mm 3 mps 751 mmHg 59%
    09:00 +16°C° 0 mm 3 mps 751 mmHg 55%
    10:00 +18°C° 0 mm 4 mps 750 mmHg 54%
    11:00 +19°C° 0 mm 4 mps 750 mmHg 52%
    12:00 +20°C° 0 mm 4 mps 750 mmHg 51%
    13:00 +20°C° 0 mm 4 mps 749 mmHg 52%
    14:00 +20°C° 0 mm 4 mps 749 mmHg 53%
    15:00 +20°C° 0 mm 4 mps 748 mmHg 54%
    16:00 +18°C° 0 mm 3 mps 748 mmHg 63%
    17:00 +16°C° 0 mm 2 mps 748 mmHg 71%
    18:00 +14°C° 0 mm 2 mps 748 mmHg 79%
    19:00 +14°C° 0 mm 2 mps 749 mmHg 84%
    20:00 +13°C° 0 mm 2 mps 749 mmHg 88%
    21:00 +13°C° 0 mm 2 mps 749 mmHg 92%
    22:00 +13°C° 0 mm 2 mps 749 mmHg 93%
    23:00 +13°C° 0 mm 2 mps 749 mmHg 93%
    Show more